This is the latest recevied weather packets stored in our database for station/object KF6ILA. If no packets are shown the sender has not sent any weather packets the latest 1 day(s).
| Time | Temp. | Humidity | Pressure | Rain* | Wind** | Luminosity | Snow |
|---|---|---|---|---|---|---|---|
| 1777997469 | 5.56° C | 100% | 1010.2 hPa | 0.76 mm | 7.15 m/s, 284° | 250 W/m² | - |
| 1777997172 | 5.56° C | 100% | 1010.2 hPa | 0.51 mm | 7.15 m/s, 284° | 323 W/m² | - |
| 1777996875 | 5.56° C | 100% | 1010.2 hPa | 0.51 mm | 9.39 m/s, 293° | 306 W/m² | - |
| 1777996579 | 5.56° C | 100% | 1010.4 hPa | 0.51 mm | 8.49 m/s, 287° | 281 W/m² | - |
| 1777996282 | 5.56° C | 100% | 1010.3 hPa | 0.51 mm | 6.26 m/s, 290° | 223 W/m² | - |
| 1777995984 | 5.56° C | 100% | 1010.1 hPa | 0.51 mm | 5.81 m/s, 294° | 135 W/m² | - |
| 1777995687 | 5.56° C | 100% | 1010.3 hPa | 0.25 mm | 4.92 m/s, 267° | 127 W/m² | - |
| 1777995390 | 5.56° C | 100% | 1010 hPa | 0.25 mm | 9.39 m/s, 266° | 232 W/m² | - |
| 1777995093 | 5° C | 100% | 1009.9 hPa | 0 mm | 9.39 m/s, 269° | 213 W/m² | - |
| 1777994796 | 5° C | 100% | 1009.9 hPa | 0 mm | 9.39 m/s, 270° | 237 W/m² | - |
| 1777994499 | 5° C | 100% | 1009.8 hPa | 0 mm | 9.39 m/s, 272° | 132 W/m² | - |
| 1777994203 | 5° C | 100% | 1009.7 hPa | 0 mm | 9.39 m/s, 262° | 134 W/m² | - |
| 1777993905 | 5° C | 100% | 1009.8 hPa | 0.25 mm | 8.05 m/s, 272° | 135 W/m² | - |
| 1777993609 | 5° C | 100% | 1009.8 hPa | 0.25 mm | 9.83 m/s, 263° | 197 W/m² | - |
| 1777993311 | 5° C | 100% | 1009.7 hPa | 0.25 mm | 7.15 m/s, 275° | 132 W/m² | - |
| 1777993014 | 5° C | 100% | 1009.7 hPa | 0.51 mm | 8.94 m/s, 270° | 153 W/m² | - |
| 1777992717 | 5° C | 100% | 1009.5 hPa | 0.76 mm | 12.07 m/s, 262° | 86 W/m² | - |
| 1777992421 | 5.56° C | 100% | 1009.5 hPa | 0.76 mm | 7.6 m/s, 260° | 81 W/m² | - |
| 1777992123 | 5.56° C | 100% | 1009.5 hPa | 0.76 mm | 9.39 m/s, 253° | 211 W/m² | - |
| 1777991826 | 5.56° C | 100% | 1009.8 hPa | 1.02 mm | 6.26 m/s, 263° | 120 W/m² | - |
| 1777991530 | 5.56° C | 100% | 1009.5 hPa | 1.02 mm | 5.81 m/s, 260° | 114 W/m² | - |
| 1777991233 | 5.56° C | 100% | 1009.5 hPa | 1.02 mm | 6.71 m/s, 264° | 93 W/m² | - |
| 1777990937 | 5° C | 100% | 1009.4 hPa | 1.02 mm | 7.15 m/s, 267° | 102 W/m² | - |
| 1777990638 | 5.56° C | 100% | 1009.6 hPa | 1.27 mm | 7.15 m/s, 276° | 58 W/m² | - |
| 1777990342 | 5.56° C | 100% | 1009.7 hPa | 1.27 mm | 5.36 m/s, 271° | 49 W/m² | - |
* Rain latest hour (hover to see other rain measurements)
** Current wind speed in m/s (hover to see current wind gust speed)